Volver al catálogo

FENGYUN 1C DEB

ActivoSSO
NORAD 35128·DEBRIS·🇨🇳 China

Lanzado May 10, 1999 desde Taiyuan Satellite Launch Center

Loading…

Próximos Pases (próximas 24 horas)

TLE

EnvejeciendoSource: Space-Track

Época: Sep 9, 2026, 10:58 UTC

1 35128U 99025DLG 26252.45737321  .00006102  00000-0  17456-2 0  9997
2 35128  98.3322 127.3582 0081763 250.6049 108.6291 14.43453337668708

Sigue FENGYUN 1C DEB en tiempo real con AllMySat

Download on the App Store